Location: Champseau
(45.8333°N, 1.7667°E)
Time: 03:08:51
(UTC+00:00)

BREEZE-M DEB (TANK) - Pass Details

Date: 18 April 2021
Orbit: 317 x 14227 km, 49.6° (Epoch: 09 May)

Event Time Altitude Azimuth Distance (km) Brightness Sun altitude
Rises 20:02:20 0° 287° (WNW) 2,579 7.7 -13.3°
Reaches altitude 10° 20:04:44 10° 296° (WNW) 1,348 6.1 -13.6°
Maximum altitude 20:07:04 41° 10° (N) 479 2.5 -14.0°
Enters shadow 20:08:11 23° 70° (ENE) 766 3.0 -14.1°
